Location: La Sioule Rivi�re
(46.3664°N, 3.3197°E)
Time: 12:23:07
(UTC+00:00)

Cosmos 2219 - Pass Details

Date: 29 October 2020
Orbit: 832 x 862 km, 71.1° (Epoch: 23 November)

Event Time Altitude Azimuth Distance (km) Brightness Sun altitude
Rises 18:03:52 0° 329° (NNW) 3,447 6.8 -15.7°
Reaches altitude 10° 18:06:23 10° 325° (NW) 2,508 6.1 -16.1°
Maximum altitude 18:11:56 51° 251° (WSW) 1,082 4.2 -17.1°
Drops below altitude 10° 18:17:27 10° 177° (S) 2,490 5.6 -18.0°
Sets 18:19:57 0° 172° (S) 3,421 6.3 -18.4°
